This is the latest recevied weather packets stored in our database for station/object SP1BMW-13. If no packets are shown the sender has not sent any weather packets the latest 10 day(s).
| Time | Temp. | Humidity | Pressure | Rain* | Wind** | Luminosity | Snow |
|---|---|---|---|---|---|---|---|
| 1787396101 | 20.56° C | 53% | 1009.5 hPa | 0 mm | 2.24 m/s, 164° | 269 W/m² | - |
| 1787396042 | 20.56° C | 53% | 1009.6 hPa | 0 mm | 2.24 m/s, 234° | 265 W/m² | - |
| 1787395981 | 20.56° C | 54% | 1009.6 hPa | 0 mm | 1.79 m/s, 195° | 804 W/m² | - |
| 1787395922 | 20° C | 54% | 1009.3 hPa | 0 mm | 1.34 m/s, 252° | 798 W/m² | - |
| 1787395862 | 20° C | 53% | 1009.5 hPa | 0 mm | 2.68 m/s, 258° | 769 W/m² | - |
| 1787395802 | 20.56° C | 53% | 1009.3 hPa | 0 mm | 1.79 m/s, 12° | 746 W/m² | - |
| 1787395741 | 20.56° C | 52% | 1009.6 hPa | 0 mm | 0.89 m/s, 319° | 762 W/m² | - |
| 1787395682 | 20.56° C | 52% | 1009.6 hPa | 0 mm | 4.02 m/s, 251° | 793 W/m² | - |
| 1787395622 | 20° C | 54% | 1009.3 hPa | 0 mm | 2.68 m/s, 271° | 493 W/m² | - |
| 1787395562 | 20° C | 56% | 1009.4 hPa | 0 mm | 0.89 m/s, 237° | 772 W/m² | - |
| 1787395502 | 20° C | 54% | 1009.2 hPa | 0 mm | 1.79 m/s, 286° | 759 W/m² | - |
| 1787395442 | 19.44° C | 55% | 1009.4 hPa | 0 mm | 1.34 m/s, 249° | 731 W/m² | - |
| 1787395382 | 19.44° C | 55% | 1009.2 hPa | 0 mm | 0.89 m/s, 262° | 714 W/m² | - |
| 1787395322 | 19.44° C | 55% | 1009.4 hPa | 0 mm | 1.79 m/s, 270° | 704 W/m² | - |
| 1787395262 | 19.44° C | 57% | 1009.5 hPa | 0 mm | 0.89 m/s, 226° | 699 W/m² | - |
| 1787395202 | 18.89° C | 57% | 1009.4 hPa | 0 mm | 1.79 m/s, 242° | 695 W/m² | - |
| 1787395142 | 18.89° C | 57% | 1009.4 hPa | 0 mm | 1.79 m/s, 248° | 698 W/m² | - |
| 1787395082 | 18.89° C | 58% | 1009.5 hPa | 0 mm | 0.45 m/s, 256° | 638 W/m² | - |
| 1787395022 | 18.89° C | 57% | 1009.2 hPa | 0 mm | 1.34 m/s, 275° | 400 W/m² | - |
| 1787394962 | 18.89° C | 56% | 1009.5 hPa | 0 mm | 1.79 m/s, 211° | 487 W/m² | - |
| 1787394901 | 18.89° C | 57% | 1009.4 hPa | 0 mm | 1.79 m/s, 223° | 260 W/m² | - |
| 1787394841 | 18.89° C | 58% | 1009.5 hPa | 0 mm | 1.34 m/s, 132° | 462 W/m² | - |
| 1787394782 | 18.89° C | 56% | 1009.6 hPa | 0 mm | 0.89 m/s, 296° | 287 W/m² | - |
| 1787394721 | 19.44° C | 56% | 1009.4 hPa | 0 mm | 3.13 m/s, 287° | 258 W/m² | - |
| 1787394662 | 19.44° C | 54% | 1009.6 hPa | 0 mm | 2.68 m/s, 249° | 253 W/m² | - |
* Rain latest hour (hover to see other rain measurements)
** Current wind speed in m/s (hover to see current wind gust speed)